This is the latest recevied weather packets stored in our database for station/object KC3WWU. If no packets are shown the sender has not sent any weather packets the latest 10 day(s).
| Time | Temp. | Humidity | Pressure | Rain* | Wind** | Luminosity | Snow |
|---|---|---|---|---|---|---|---|
| 1777749381 | 4.44° C | 83% | 1011.7 hPa | 0 mm | - | 117 W/m² | - |
| 1777749079 | 4.44° C | 82% | 1011.6 hPa | 0 mm | - | 96 W/m² | - |
| 1777748777 | 4.44° C | 82% | 1011.8 hPa | 0 mm | - | 103 W/m² | - |
| 1777748475 | 4.44° C | 82% | 1012 hPa | 0 mm | - | 105 W/m² | - |
| 1777748168 | 4.44° C | 82% | 1012 hPa | 0 mm | - | 109 W/m² | - |
| 1777747865 | 4.44° C | 83% | 1012.1 hPa | 0 mm | - | 101 W/m² | - |
| 1777747561 | 4.44° C | 83% | 1012.1 hPa | 0 mm | - | 67 W/m² | - |
| 1777747257 | 4.44° C | 82% | 1012.1 hPa | 0 mm | - | 57 W/m² | - |
| 1777746954 | 4.44° C | 82% | 1012 hPa | 0 mm | - | 56 W/m² | - |
| 1777746650 | 4.44° C | 82% | 1012.2 hPa | 0 mm | - | 47 W/m² | - |
| 1777746345 | 4.44° C | 84% | 1012.1 hPa | 0 mm | - | 42 W/m² | - |
| 1777746042 | 4.44° C | 83% | 1012.3 hPa | 0 mm | - | 36 W/m² | - |
| 1777745740 | 5° C | 82% | 1012.2 hPa | 0 mm | - | 20 W/m² | - |
| 1777745438 | 5.56° C | 80% | 1011.8 hPa | 0 mm | - | 25 W/m² | - |
| 1777745135 | 6.11° C | 73% | 1011.5 hPa | 0 mm | - | 34 W/m² | - |
| 1777744831 | 6.11° C | 71% | 1011.4 hPa | 0 mm | - | 49 W/m² | - |
| 1777744525 | 6.67° C | 68% | 1011.4 hPa | 0 mm | - | 95 W/m² | - |
| 1777744221 | 6.67° C | 66% | 1011.4 hPa | 0 mm | - | 202 W/m² | - |
| 1777743919 | 6.11° C | 74% | 1011.5 hPa | 0 mm | - | 284 W/m² | - |
| 1777743615 | 5.56° C | 76% | 1011.5 hPa | 0 mm | - | 178 W/m² | - |
| 1777743313 | 5.56° C | 76% | 1011.4 hPa | 0 mm | - | 115 W/m² | - |
| 1777743011 | 5.56° C | 76% | 1011.6 hPa | 0 mm | - | 75 W/m² | - |
| 1777742708 | 5.56° C | 75% | 1011.3 hPa | 0 mm | - | 63 W/m² | - |
| 1777742404 | 5.56° C | 74% | 1011.6 hPa | 0 mm | - | 69 W/m² | - |
| 1777742099 | 6.11° C | 74% | 1011.2 hPa | 0 mm | - | 79 W/m² | - |
* Rain latest hour (hover to see other rain measurements)
** Current wind speed in m/s (hover to see current wind gust speed)